Temp
17 16 15 14 14 14 14 14 14 14 13 13 13 13 13 13 12 12 13 13 13 13 13 13 12 12 11 11 11 11 10 10 10 10 11 11 12 12 12 12 12 12 12
17 16 15 15 14 14 14 14 14 14 14 13 12 11 11 12 12 12 13 13 13 12 12 13 12 12 11 11 11 10 9 9 9 10 11 11 11 11 12 12 12 12 12
17 16 15 14 14 14 14 13 13 13 13 13 12 11 12 12 12 12 13 13 13 12 12 12 12 12 11 10 10 10 9 9 8 9 9 10 11 11 12 12 12 12 12
17 16 15 14 14 13 13 13 13 13 12 12 12 12 12 11 11 12 12 12 12 12 12 12 11 11 11 10 9 9 8 8 8 8 8 9 11 11 11 12 11 11 11
16 15 15 14 13 13 13 13 13 13 12 12 12 12 12 11 11 12 12 12 12 12 12 12 12 12 10 10 9 8 8 8 8 8 7 8 10 11 11 11 11 11 11
16 15 14 13 13 13 13 13 12 12 12 12 12 11 12 11 11 11 12 12 12 12 12 12 12 11 10 9 9 8 7 8 7 7 7 8 10 11 11 11 11 11 11
15 15 14 14 13 13 12 12 12 12 11 11 11 10 10 10 11 11 11 11 12 12 11 11 11 10 9 9 8 8 8 7 7 7 7 8 10 11 11 11 11 11 11
15 15 14 13 13 12 12 12 12 11 11 11 10 10 10 10 11 10 11 11 11 11 11 11 10 9 9 8 8 7 7 7 7 7 7 9 11 11 11 11 11 10 10
16 14 13 13 13 12 11 11 11 11 11 11 11 11 10 10 10 10 10 10 10 10 11 10 10 9 8 8 7 7 7 7 8 7 8 9 10 11 11 10 10 10 10
16 14 13 12 12 11 11 11 11 10 10 11 11 10 11 11 10 9 9 10 9 10 10 10 9 9 8 8 8 8 8 8 7 7 7 9 10 10 10 10 10 10 10
14 14 12 12 12 11 11 11 11 10 10 10 11 11 11 10 11 11 9 9 9 9 10 10 9 9 9 9 8 8 8 8 8 9 8 8 9 10 10 10 10 10 10
14 13 12 11 12 12 11 11 11 10 10 10 11 11 10 10 10 10 11 9 9 9 10 10 10 9 9 9 9 9 9 9 9 9 9 9 9 9 10 10 10 10 10
13 13 12 12 11 11 11 11 11 10 10 10 10 10 10 11 11 11 10 10 9 8 9 10 10 10 10 10 10 9 9 9 9 9 9 9 9 9 10 10 10 10 10
16 14 12 11 11 11 11 10 11 10 10 9 10 10 10 10 10 10 10 9 8 8 9 10 10 10 10 10 10 10 10 9 9 9 9 9 9 9 9 9 9 9 9
16 14 12 12 11 11 10 10 10 10 10 10 10 10 10 10 10 9 9 9 10 9 9 9 10 11 10 10 10 10 10 10 9 9 9 9 9 9 9 9 8 8 8
14 13 12 11 11 11 10 10 10 10 9 10 10 10 10 10 9 8 9 9 9 10 10 10 10 10 11 10 10 10 10 9 9 9 9 9 9 9 9 8 8 9 9
12 12 11 11 10 10 10 10 9 9 9 9 10 10 10 10 9 9 9 8 8 9 9 10 9 10 10 10 10 10 9 9 9 9 9 9 9 9 9 9 9 9 9
11 11 10 10 10 10 10 10 9 9 9 9 9 9 10 9 9 9 8 8 9 8 8 9 10 9 9 10 9 8 8 8 8 9 9 9 9 9 9 9 9 9 9
10 10 10 10 10 10 10 10 9 9 9 9 10 9 9 9 9 9 8 9 9 8 9 9 9 9 9 9 8 7 8 8 8 8 8 9 9 9 9 9 9 9 9
10 10 10 9 9 9 11 9 9 9 9 9 9 9 9 9 9 8 8 9 8 8 9 9 9 9 9 8 8 7 7 8 8 8 7 7 8 8 8 9 8 8 8
11 10 10 10 10 11 10 9 9 9 9 9 9 9 9 9 9 9 9 8 8 9 8 9 8 8 8 7 8 8 7 7 7 7 7 7 7 7 8 7 7 7 6
9 10 10 10 10 9 9 9 9 9 9 9 9 9 9 9 9 9 8 8 8 8 8 8 8 8 7 7 7 7 7 6 6 6 6 6 6 5 5 5 5 5 4
9 9 9 10 10 10 10 9 8 8 8 9 9 9 8 8 9 9 9 8 8 8 8 8 8 8 7 7 7 7 7 6 6 6 5 4 4 4 3 2 2 2 2
8 8 8 9 9 10 9 9 8 8 8 8 8 8 8 8 8 8 8 8 8 8 7 7 8 7 7 7 7 7 6 6 5 4 3 2 2 1 0 0 -0 -1 -1
6 7 6 6 7 8 8 8 7 7 7 7 7 7 7 7 7 7 7 7 7 7 7 7 7 7 7 6 6 5 4 3 3 2 1 1 0 -0 -1 -2 -3 -3 -3
1 2 3 4 3 5 6 6 5 6 6 6 5 5 4 4 4 5 5 5 6 5 3 5 3 3 3 3 2 2 2 1 1 0 -0 -1 -1 -1 -3 -4 -5 -5 -5
Height
1484 1486 1488 1491 1493 1496 1498 1499 1501 1504 1507 1509 1512 1514 1516 1518 1521 1528 1532 1536 1539 1542 1544 1547 1549 1552 1555 1558 1561 1563 1564 1566 1567 1569 1570 1571 1572 1574 1576 1577 1579 1581 1582
1479 1481 1484 1487 1489 1492 1495 1497 1499 1500 1503 1506 1508 1510 1512 1516 1519 1526 1530 1534 1538 1542 1543 1545 1547 1551 1553 1556 1559 1560 1562 1564 1565 1566 1567 1569 1571 1573 1575 1577 1579 1580 1582
1475 1477 1481 1483 1485 1489 1491 1493 1495 1497 1500 1503 1505 1509 1511 1514 1518 1523 1528 1531 1536 1539 1542 1544 1546 1549 1551 1554 1557 1559 1560 1561 1562 1563 1566 1568 1570 1572 1574 1576 1578 1580 1581
1471 1473 1478 1480 1482 1485 1488 1490 1492 1495 1497 1500 1504 1508 1510 1513 1517 1520 1526 1528 1533 1536 1540 1542 1543 1546 1549 1551 1554 1556 1558 1559 1560 1562 1564 1566 1568 1571 1573 1575 1577 1580 1581
1467 1469 1474 1477 1479 1482 1484 1486 1489 1492 1495 1498 1502 1506 1508 1510 1515 1519 1524 1527 1531 1534 1536 1539 1541 1543 1546 1549 1551 1553 1556 1558 1560 1562 1563 1565 1567 1569 1571 1574 1576 1579 1580
1464 1466 1470 1473 1476 1478 1480 1482 1486 1489 1492 1496 1500 1504 1507 1508 1512 1516 1520 1524 1528 1531 1534 1536 1538 1540 1543 1546 1547 1549 1552 1555 1558 1561 1562 1564 1566 1568 1571 1573 1576 1577 1579
1460 1461 1465 1468 1471 1474 1477 1479 1482 1485 1490 1494 1498 1502 1504 1508 1509 1513 1516 1520 1524 1527 1531 1533 1534 1536 1539 1542 1545 1546 1549 1553 1556 1559 1560 1562 1564 1567 1569 1571 1573 1576 1577
1453 1456 1460 1463 1466 1470 1473 1475 1478 1481 1486 1489 1493 1497 1500 1504 1505 1509 1512 1516 1520 1524 1527 1529 1531 1533 1536 1538 1543 1544 1546 1550 1553 1556 1558 1560 1562 1565 1567 1569 1571 1573 1574
1444 1449 1455 1459 1461 1465 1467 1470 1474 1477 1481 1485 1487 1492 1494 1496 1499 1504 1506 1510 1514 1519 1523 1525 1528 1530 1533 1535 1539 1541 1543 1547 1551 1553 1554 1558 1560 1563 1565 1567 1568 1570 1571
1439 1442 1451 1454 1456 1459 1461 1464 1469 1472 1476 1478 1482 1485 1488 1491 1495 1500 1502 1505 1507 1513 1518 1521 1524 1527 1530 1532 1536 1539 1541 1545 1548 1550 1552 1554 1557 1560 1562 1564 1565 1567 1568
1428 1438 1446 1449 1451 1453 1456 1459 1464 1467 1470 1473 1475 1479 1483 1487 1490 1492 1495 1497 1504 1507 1512 1518 1521 1524 1526 1529 1533 1536 1539 1542 1545 1547 1549 1552 1554 1557 1558 1560 1562 1564 1565
1426 1435 1440 1443 1445 1447 1450 1454 1458 1461 1464 1468 1470 1473 1476 1479 1482 1486 1490 1493 1498 1502 1506 1514 1517 1520 1523 1526 1529 1533 1536 1539 1542 1544 1546 1548 1551 1553 1555 1557 1559 1560 1562
1420 1426 1431 1435 1438 1442 1446 1450 1453 1456 1460 1462 1465 1468 1471 1473 1477 1480 1485 1486 1492 1498 1501 1509 1512 1517 1520 1523 1526 1530 1533 1536 1538 1540 1543 1546 1548 1550 1551 1552 1554 1556 1558
1412 1418 1425 1430 1434 1438 1441 1445 1448 1452 1455 1457 1460 1462 1465 1468 1470 1474 1476 1479 1485 1493 1497 1503 1508 1512 1516 1520 1523 1527 1530 1532 1535 1537 1539 1542 1544 1546 1547 1548 1550 1551 1553
1407 1415 1421 1426 1430 1434 1437 1440 1443 1447 1449 1452 1453 1456 1460 1462 1465 1466 1469 1474 1478 1485 1493 1498 1503 1507 1512 1516 1520 1523 1525 1528 1531 1533 1535 1538 1539 1541 1542 1543 1544 1546 1547
1405 1412 1418 1423 1427 1430 1433 1436 1438 1441 1443 1445 1447 1449 1452 1454 1457 1460 1465 1471 1475 1480 1488 1494 1498 1502 1507 1511 1515 1518 1521 1524 1526 1528 1530 1532 1533 1534 1535 1536 1537 1539 1540
1405 1411 1417 1421 1424 1427 1429 1431 1433 1436 1438 1440 1441 1443 1444 1446 1447 1455 1460 1467 1472 1477 1483 1488 1492 1496 1501 1506 1509 1513 1516 1518 1519 1521 1523 1524 1526 1527 1529 1530 1532 1533 1533
1404 1411 1415 1417 1419 1422 1425 1427 1429 1430 1432 1433 1433 1435 1434 1436 1442 1448 1454 1461 1468 1473 1480 1484 1488 1492 1497 1500 1504 1507 1509 1511 1514 1516 1518 1519 1520 1521 1523 1524 1525 1526 1526
1404 1409 1411 1414 1416 1418 1420 1423 1424 1426 1427 1426 1425 1425 1428 1432 1435 1442 1450 1455 1463 1470 1475 1477 1482 1489 1493 1496 1500 1503 1505 1505 1507 1508 1510 1512 1513 1514 1515 1516 1516 1517 1518
1401 1404 1407 1411 1414 1415 1415 1418 1420 1421 1422 1422 1419 1422 1423 1427 1431 1437 1445 1451 1458 1464 1469 1473 1478 1484 1488 1490 1493 1495 1497 1499 1500 1502 1503 1504 1505 1507 1509 1509 1509 1510 1510
1397 1401 1404 1408 1411 1412 1412 1414 1416 1418 1419 1419 1420 1421 1423 1424 1430 1433 1440 1446 1453 1459 1463 1469 1473 1477 1480 1483 1486 1488 1490 1492 1492 1493 1495 1497 1498 1499 1500 1500 1501 1501 1501
1395 1397 1401 1404 1408 1409 1410 1411 1413 1414 1416 1418 1418 1419 1420 1424 1425 1431 1436 1442 1449 1454 1458 1462 1466 1470 1472 1475 1477 1479 1481 1483 1485 1487 1489 1491 1491 1492 1492 1493 1494 1494 1495
1393 1394 1398 1401 1403 1406 1408 1410 1410 1413 1414 1416 1418 1420 1422 1422 1423 1430 1436 1440 1445 1448 1453 1456 1460 1463 1465 1468 1472 1474 1476 1478 1480 1482 1483 1484 1486 1487 1487 1488 1489 1489 1490
1388 1392 1396 1398 1400 1402 1404 1408 1410 1411 1412 1414 1417 1419 1421 1423 1424 1428 1432 1437 1439 1444 1447 1450 1453 1455 1459 1463 1466 1467 1471 1473 1474 1475 1477 1479 1480 1482 1483 1484 1485 1486 1486
1385 1389 1393 1395 1397 1399 1402 1405 1408 1410 1411 1412 1414 1416 1419 1421 1422 1426 1429 1431 1435 1437 1441 1444 1446 1450 1455 1458 1460 1462 1465 1467 1468 1471 1472 1474 1476 1477 1479 1480 1481 1482 1482
1389 1391 1393 1394 1396 1398 1400 1403 1407 1409 1410 1411 1413 1415 1418 1420 1422 1424 1427 1429 1431 1433 1437 1439 1444 1446 1450 1453 1456 1458 1460 1463 1466 1467 1470 1473 1474 1475 1476 1478 1478 1479 1480
Wind_Speed
22 22 24 24 23 25 25 24 25 24 25 26 28 29 30 32 29 28 27 26 23 23 19 16 14 15 14 16 17 17 16 17 16 14 14 12 12 12 10 10 11 11 9
21 22 25 25 25 25 24 24 24 23 21 23 25 31 32 31 28 28 27 26 22 20 17 14 15 16 15 15 19 18 17 16 16 16 15 12 12 13 11 11 10 10 9
22 22 24 25 24 25 24 24 23 21 19 21 22 26 25 30 26 29 28 24 22 21 17 13 14 16 16 16 20 18 16 15 14 14 13 13 13 13 12 12 11 11 9
23 23 24 24 24 25 23 24 24 22 20 21 25 26 28 27 27 27 26 24 23 22 18 15 13 15 16 15 19 19 17 16 14 15 15 15 14 13 13 12 11 9 8
24 23 24 23 23 24 24 25 25 23 23 26 26 26 27 32 26 25 27 27 24 23 19 15 14 17 20 18 18 21 19 16 16 16 15 15 14 14 13 12 11 9 8
26 24 24 23 23 24 25 25 26 25 26 29 28 26 26 25 27 28 23 27 28 24 20 18 17 18 23 23 20 20 19 18 18 17 16 15 14 13 13 12 10 9 9
28 27 25 24 25 25 26 25 25 26 30 29 25 23 25 29 32 32 29 27 31 25 21 18 16 17 23 23 19 19 18 17 17 17 16 16 16 15 13 11 10 9 9
31 29 27 26 26 25 27 26 26 27 31 32 30 27 20 24 29 33 33 33 30 26 22 18 17 18 18 21 21 19 19 19 17 17 18 17 16 14 13 12 11 10 10
33 31 28 26 26 27 27 27 27 30 32 33 35 24 11 11 22 24 29 35 34 28 22 18 17 19 19 18 23 22 22 20 18 19 18 17 16 14 13 12 11 11 10
35 32 30 27 26 27 27 26 28 31 30 34 35 36 26 16 13 11 29 38 32 28 22 19 18 19 20 19 18 17 14 16 20 20 18 17 15 14 14 13 12 12 12
36 34 33 28 27 27 28 26 26 29 31 33 33 38 36 27 19 19 19 31 31 28 23 20 17 19 22 20 19 17 16 17 17 16 16 16 16 16 15 14 13 13 13
42 36 33 30 27 27 26 26 27 28 29 33 32 34 38 37 35 27 25 37 36 32 25 24 22 20 20 21 19 16 15 16 17 16 15 15 15 14 14 13 14 14 14
40 39 34 33 29 27 26 26 26 25 27 30 30 34 37 36 37 33 36 39 38 31 26 29 25 22 20 20 19 17 15 16 15 14 13 12 13 15 16 16 16 16 16
35 34 32 29 29 29 28 26 23 26 26 27 31 35 35 34 36 37 37 39 31 28 29 32 29 26 24 22 19 18 17 17 16 15 14 13 14 15 16 16 17 18 18
30 28 28 27 25 21 22 22 26 28 27 26 27 33 32 34 36 40 42 35 32 24 29 30 27 26 26 25 21 20 18 18 18 17 17 17 17 16 17 18 19 20 22
24 23 22 21 20 21 22 23 24 25 25 27 29 33 33 36 36 47 41 35 31 32 27 26 26 25 24 24 22 21 20 19 18 18 19 21 21 21 21 21 22 23 23
20 21 19 19 21 21 21 22 24 24 24 24 28 31 36 41 42 42 44 37 35 35 26 26 25 26 24 22 25 24 23 20 19 21 22 22 21 22 22 22 22 24 26
21 19 20 20 19 19 19 20 22 23 24 25 26 29 46 44 41 44 38 34 30 32 30 27 25 23 22 20 18 18 19 17 15 18 21 26 25 24 27 29 31 30 28
21 20 19 18 16 15 14 13 13 14 17 23 24 29 29 41 46 41 39 39 32 29 33 29 26 19 19 21 20 15 17 19 22 25 28 28 29 29 28 30 30 33 37
20 16 15 14 13 13 12 13 13 14 14 14 23 18 39 44 46 43 38 39 34 31 26 26 24 25 26 27 24 21 22 25 25 26 28 29 29 29 30 31 35 35 36
18 17 16 13 12 14 13 13 13 13 13 10 18 26 26 41 37 44 40 38 36 32 28 24 25 28 28 27 29 29 31 28 25 26 26 27 27 27 28 27 28 26 23
21 18 15 13 13 10 8 9 10 10 12 14 16 20 27 28 42 45 42 35 34 32 29 28 26 29 30 25 29 26 24 23 23 24 22 22 22 19 18 18 19 20 20
19 16 14 12 10 9 8 10 9 11 13 14 14 15 16 26 28 21 26 27 29 34 28 26 29 27 27 24 23 20 21 21 22 20 21 20 18 17 15 15 16 18 18
19 16 14 12 10 9 7 9 8 11 14 18 17 16 15 17 18 23 27 28 30 29 27 25 23 22 21 21 21 22 22 23 22 20 18 16 16 15 14 15 15 17 19
19 17 14 12 10 8 9 8 8 11 13 14 15 15 16 19 22 24 23 25 26 24 23 24 22 22 22 22 22 20 17 17 16 14 13 12 13 12 12 11 11 9 8
11 10 11 10 8 7 9 10 10 12 14 14 14 13 14 13 15 17 16 16 16 16 14 16 14 13 11 10 8 10 11 11 12 10 10 9 8 7 7 8 7 7 8
Wind_Direction
226 223 227 225 226 224 224 223 218 217 224 229 231 227 219 207 209 209 201 194 189 187 188 189 195 191 195 199 212 220 224 227 226 232 243 241 224 208 199 188 179 177 176
226 224 228 226 226 226 226 228 226 223 226 232 235 228 211 202 210 200 198 191 190 196 195 195 198 200 202 214 214 221 228 230 226 230 235 222 200 195 191 184 182 181 179
221 223 228 228 228 229 228 222 215 220 225 237 218 207 191 204 212 197 193 193 198 202 202 201 206 210 210 222 214 220 223 220 214 213 206 198 197 191 188 185 185 185 188
217 218 225 227 229 231 227 218 215 216 224 214 204 212 210 215 213 194 205 202 204 205 210 212 207 216 221 226 220 215 219 215 203 193 199 197 194 192 192 191 189 192 199
216 214 221 225 229 229 226 219 215 219 213 204 206 211 213 216 218 206 210 217 211 215 217 218 220 220 220 225 224 215 213 212 202 200 197 198 196 197 195 194 195 202 209
217 215 219 222 228 228 225 219 217 217 215 208 208 214 207 205 218 222 218 217 218 215 217 220 228 225 222 223 222 220 210 207 203 203 203 202 203 199 197 202 207 214 223
220 218 219 220 224 227 226 219 213 216 212 209 210 216 219 225 224 225 223 219 219 213 216 224 231 224 215 219 213 213 205 210 210 204 210 208 206 202 202 207 218 229 237
222 221 222 220 221 225 225 220 217 216 216 212 210 216 212 217 224 228 228 221 213 213 216 223 226 217 217 200 209 212 201 208 211 213 213 213 208 208 210 215 222 231 241
223 224 225 223 223 226 225 223 226 225 217 220 222 210 182 201 210 222 237 219 209 209 215 217 216 217 216 208 210 217 199 205 212 218 215 219 213 212 215 220 227 234 238
230 225 226 224 222 231 228 228 227 225 224 220 219 220 219 216 191 198 216 221 201 207 212 213 216 218 215 211 214 216 212 215 212 215 220 218 221 219 220 224 229 236 241
234 224 223 218 219 228 231 235 234 230 229 222 220 213 222 223 217 210 199 195 204 205 208 212 217 221 213 210 213 215 217 219 216 216 219 221 225 228 226 228 235 241 247
224 220 220 220 223 231 234 237 238 232 234 226 226 223 225 222 226 222 212 201 205 204 200 211 214 217 215 209 208 209 211 214 214 214 219 223 228 232 235 235 240 246 249
217 216 220 218 224 229 232 236 236 240 236 232 237 237 237 238 238 240 218 206 201 206 206 216 216 216 215 211 207 210 209 212 211 211 216 225 233 237 239 242 246 250 255
221 219 223 223 225 230 226 232 234 240 243 239 241 238 242 245 240 237 221 199 186 204 212 219 220 220 220 219 214 213 215 217 219 219 222 229 235 244 248 249 254 260 262
219 220 223 227 228 221 225 224 233 236 241 244 239 236 243 241 249 227 206 196 192 187 217 221 225 222 222 223 219 219 223 222 225 230 235 238 241 244 248 250 254 257 261
208 215 213 209 217 216 223 232 237 240 244 242 243 243 242 243 241 219 204 198 196 197 203 217 224 224 222 221 220 222 226 225 227 230 234 239 242 241 241 244 247 254 260
199 198 198 210 218 224 232 239 241 241 243 250 250 251 245 241 227 213 207 200 199 198 211 214 229 224 225 233 221 225 227 237 236 233 230 235 237 241 243 246 250 257 265
187 194 206 214 223 228 228 240 244 249 249 253 253 257 242 222 223 207 198 194 198 202 213 218 223 214 216 210 203 204 198 208 228 240 247 242 240 243 250 254 259 265 273
191 201 206 215 223 216 221 237 239 248 266 257 256 265 240 221 208 197 196 193 198 210 221 192 186 199 208 204 193 214 234 244 249 254 252 250 247 251 254 260 263 264 269
196 199 198 201 211 216 229 237 252 257 268 262 253 246 214 208 206 200 199 199 201 205 207 200 205 218 221 216 227 246 253 256 249 246 244 243 243 249 254 259 260 266 269
195 193 198 211 231 238 240 240 249 263 246 236 241 233 230 213 215 203 199 198 200 208 204 209 213 218 222 234 244 249 252 247 237 240 242 246 248 251 257 260 260 255 263
191 197 204 213 229 239 245 245 247 250 245 238 245 229 213 210 203 206 200 195 207 218 230 213 224 235 233 247 261 236 219 217 218 227 226 233 238 233 239 243 250 257 267
190 193 205 216 227 247 253 259 258 247 251 233 228 222 214 198 183 195 209 212 215 218 217 228 231 239 246 235 215 218 223 222 222 225 221 223 227 235 244 251 258 266 274
176 189 193 203 214 227 242 248 241 235 225 213 214 211 216 220 211 208 213 222 208 217 221 224 230 225 224 221 222 231 230 227 224 216 219 219 227 237 247 257 266 277 280
159 171 177 186 188 207 214 220 224 223 205 202 193 197 208 215 212 217 215 216 216 218 223 226 212 216 226 231 231 231 226 218 210 214 219 223 224 237 253 256 254 263 278
95 119 140 145 149 156 186 202 195 205 197 183 178 183 180 187 186 185 190 191 191 173 171 188 186 185 183 193 209 220 225 229 238 230 239 223 225 215 200 221 236 254 267